Flag for Monaco Weather past 2 weeks in Monaco, Monaco

Now
70 °F

Passing clouds.


Feels Like: 70 °F
Forecast: 64 / 78 °F
Wind: 6 mph from Northwest

Location: Nice Airport

Current Time: Sep 22, 2014 at 12:27:02 AM

Latest Report: Sep 22, 2014 at 12:00 AM


Visibility: N/A

Pressure: 29.89 "Hg

Humidity: 78%

Dew point: 63 °F

Location of MonacoLocation

Historic Weather in Monaco — Graph

°F

Monaco temperature yesterday

Maximum temperature yesterday: 75 °F (at 10:30 AM)
Minimum temperature yesterday: 68 °F (at 6:00 AM)
Average temperature yesterday: 73 °F

Past Weeks' High & Low Weather Summary

 TemperatureHumidityPressure
High79 °F (Sep 9, 3:00 PM)94% (Sep 20, 9:00 PM)30.04 "Hg (Sep 20, 9:00 PM)
Low64 °F (Sep 13, 6:30 AM)44% (Sep 12, 3:00 PM)29.74 "Hg (Sep 12, 6:00 AM)
Average73 °F71%29.93 "Hg
* Reported Sep 6 11:00 PM — Sep 21 11:30 PM, Monaco, Weather by CustomWeather, © 2014

Note: Actual official high and low records may vary slightly from our data, if they occured in-between our weather recording intervals... More about our weather records

Advertising

Monaco weather history for previous 24 hours

 ConditionsComfort  
Time TempWeatherWind HumidityBarometerVisibility
11:30 PM
Sep 21
70 °FClear.5 mph78%29.89 "Hg10 mi
11:00 PM70 °FClear.6 mph78%29.89 "Hg10 mi
10:30 PM72 °FClear.2 mph78%29.89 "Hg10 mi
10:00 PM72 °FClear.3 mph78%29.89 "Hg10 mi
9:30 PM72 °FClear.3 mph78%29.86 "Hg10 mi
9:00 PM73 °FClear.9 mph83%29.86 "Hg10 mi
8:30 PM73 °FSunny.9 mph83%29.86 "Hg10 mi
8:00 PM73 °FSunny.10 mph83%29.86 "Hg10 mi
7:30 PM73 °FPartly sunny.13 mph83%29.86 "HgN/A
7:00 PM75 °FPartly sunny.13 mph78%29.86 "HgN/A
6:30 PM75 °FPartly sunny.15 mph78%29.86 "HgN/A
6:00 PM75 °FPartly sunny.14 mph78%29.86 "HgN/A
5:30 PM75 °FPartly sunny.12 mph74%29.89 "HgN/A
5:00 PM75 °FPartly sunny.10 mph74%29.89 "HgN/A
4:30 PM75 °FPartly sunny.8 mph74%29.89 "HgN/A
4:00 PM75 °FPartly sunny.6 mph69%29.92 "HgN/A
3:30 PM75 °FPartly sunny.5 mph69%29.92 "HgN/A
3:00 PM75 °FPartly sunny.5 mph74%29.95 "HgN/A
2:30 PM75 °FPartly sunny.3 mph74%29.95 "HgN/A
2:00 PM75 °FPartly sunny.6 mph74%29.95 "HgN/A
1:30 PM75 °FPartly sunny.5 mph74%29.95 "HgN/A
1:00 PM75 °FPartly sunny.5 mph74%29.98 "HgN/A
12:30 PM75 °FSunny.6 mph74%29.98 "Hg10 mi
12:00 PM75 °FSunny.6 mph74%29.98 "Hg10 mi
11:30 AM75 °FSunny.5 mph74%29.98 "Hg10 mi
11:00 AM75 °FSunny.3 mph74%29.98 "Hg10 mi
10:30 AM75 °FSunny.3 mph74%29.98 "Hg10 mi
10:00 AM73 °FPassing clouds.3 mph61%29.98 "HgN/A
9:30 AM72 °FSunny.6 mph61%29.98 "Hg10 mi
9:00 AM70 °FSunny.6 mph64%29.98 "Hg10 mi
8:30 AM70 °FSunny.7 mph64%29.98 "Hg10 mi
7:30 AM68 °FPassing clouds.8 mph69%29.98 "HgN/A
7:00 AM68 °FPassing clouds.8 mph69%29.98 "HgN/A
6:30 AM68 °FPassing clouds.8 mph69%29.98 "HgN/A
6:00 AM68 °FPassing clouds.8 mph73%29.98 "HgN/A
5:30 AM70 °FPassing clouds.9 mph69%29.98 "HgN/A
4:30 AM70 °FPassing clouds.7 mph69%29.98 "HgN/A
4:00 AM70 °FPassing clouds.7 mph73%29.98 "HgN/A
3:30 AM72 °FPassing clouds.6 mph69%29.98 "HgN/A
3:00 AM72 °FPassing clouds.9 mph69%29.98 "HgN/A
2:30 AM72 °FPassing clouds.12 mph73%29.98 "HgN/A
2:00 AM72 °FPassing clouds.10 mph73%29.98 "HgN/A
1:30 AM72 °FPassing clouds.12 mph83%29.98 "HgN/A
12:30 AM72 °FPassing clouds.7 mph83%30.01 "HgN/A
12:00 AM72 °FPassing clouds.7 mph83%30.01 "HgN/A
Weather by CustomWeather, © 2014

See weather overviewHow to use our weather pages